Location: Pedimozza
(42.0500°N, 9.3500°E)
Time: 13:04:03
(UTC+00:00)

CZ-2C R/B - Pass Details

Date: 19 August 2019
Orbit: 784 x 871 km, 98.3° (Epoch: 15 September)

Event Time Altitude Azimuth Distance (km) Brightness Sun altitude
Rises 19:46:30 0° 22° (NNE) 3,309 6.0 -15.6°
Reaches altitude 10° 19:49:00 10° 31° (NNE) 2,385 5.1 -16.0°
Maximum altitude 19:53:50 36° 97° (E) 1,273 3.2 -16.7°
Enters shadow 19:55:41 28° 136° (SE) 1,495 3.4 -17.0°
